Time,TemperatureF,DewpointF,PressureIn,WindDirection,WindDirectionDegrees,WindSpeedMPH,WindSpeedGustMPH,Humidity,HourlyPrecipIn,Conditions,Clouds,dailyrainin,SoftwareType,DateUTC
2013-07-31 00:02:00,52.0,41.0,-100.00,SSW,212,3.0,5.0,67,0.00,,,0.00,,2013-07-31 06:02:00,
2013-07-31 00:12:00,52.0,41.0,-100.00,SSW,212,3.0,5.0,67,0.00,,,0.00,,2013-07-31 06:12:00,
2013-07-31 00:42:00,53.0,42.0,-100.00,SSW,209,4.0,6.0,66,0.00,,,0.00,,2013-07-31 06:42:00,
2013-07-31 00:53:00,53.0,42.0,-100.00,SSW,209,4.0,6.0,66,0.00,,,0.00,,2013-07-31 06:53:00,
2013-07-31 01:02:00,53.0,42.0,-100.00,SSW,209,4.0,6.0,66,0.00,,,0.00,,2013-07-31 07:02:00,
2013-07-31 01:12:00,53.0,42.0,-100.00,SSW,209,4.0,6.0,66,0.00,,,0.00,,2013-07-31 07:12:00,
2013-07-31 01:52:00,50.0,42.0,-100.00,South,176,4.0,5.0,75,0.00,,,0.00,,2013-07-31 07:52:00,
2013-07-31 02:02:00,50.0,42.0,-100.00,South,176,4.0,5.0,75,0.00,,,0.00,,2013-07-31 08:02:00,
2013-07-31 02:12:00,50.0,42.0,-100.00,South,176,4.0,5.0,75,0.00,,,0.00,,2013-07-31 08:12:00,
2013-07-31 02:42:00,48.0,42.0,-100.00,ESE,118,1.0,5.0,82,0.00,,,0.00,,2013-07-31 08:42:00,
2013-07-31 02:53:00,48.0,42.0,-100.00,ESE,118,1.0,5.0,82,0.00,,,0.00,,2013-07-31 08:53:00,
2013-07-31 03:02:00,48.0,42.0,-100.00,ESE,118,1.0,5.0,82,0.00,,,0.00,,2013-07-31 09:02:00,
2013-07-31 03:12:00,48.0,42.0,-100.00,ESE,118,1.0,5.0,82,0.00,,,0.00,,2013-07-31 09:12:00,
2013-07-31 03:43:00,43.0,40.0,-100.00,SSW,194,2.0,3.0,91,0.00,,,0.00,,2013-07-31 09:43:00,
2013-07-31 03:52:00,43.0,40.0,-100.00,SSW,194,2.0,3.0,91,0.00,,,0.00,,2013-07-31 09:52:00,
2013-07-31 04:02:00,43.0,40.0,-100.00,SSW,194,2.0,3.0,91,0.00,,,0.00,,2013-07-31 10:02:00,
2013-07-31 04:12:00,43.0,40.0,-100.00,SSW,194,2.0,3.0,91,0.00,,,0.00,,2013-07-31 10:12:00,
2013-07-31 04:44:00,43.0,39.0,-100.00,South,187,3.0,5.0,86,0.00,,,0.00,,2013-07-31 10:44:00,
2013-07-31 04:52:00,43.0,39.0,-100.00,South,187,3.0,5.0,86,0.00,,,0.00,,2013-07-31 10:52:00,
2013-07-31 05:03:00,43.0,39.0,-100.00,South,187,3.0,5.0,86,0.00,,,0.00,,2013-07-31 11:03:00,
2013-07-31 05:12:00,43.0,39.0,-100.00,South,187,3.0,5.0,86,0.00,,,0.00,,2013-07-31 11:12:00,
2013-07-31 05:43:00,42.0,37.0,-100.00,SW,224,0.0,2.0,83,0.00,,,0.00,,2013-07-31 11:43:00,
2013-07-31 05:53:00,42.0,37.0,-100.00,SW,224,0.0,2.0,83,0.00,,,0.00,,2013-07-31 11:53:00,
2013-07-31 06:02:00,42.0,37.0,-100.00,SW,224,0.0,2.0,83,0.00,,,0.00,,2013-07-31 12:02:00,
2013-07-31 06:12:00,42.0,37.0,-100.00,SW,224,0.0,2.0,83,0.00,,,0.00,,2013-07-31 12:12:00,
2013-07-31 06:53:00,42.0,37.0,-100.00,NNE,27,2.0,4.0,83,0.00,,,-99.99,,2013-07-31 12:53:00,
2013-07-31 07:02:00,42.0,37.0,-100.00,NNE,27,2.0,4.0,83,0.00,,,-99.99,,2013-07-31 13:02:00,
2013-07-31 07:12:00,42.0,37.0,-100.00,NNE,27,2.0,4.0,83,0.00,,,-99.99,,2013-07-31 13:12:00,
2013-07-31 07:53:00,45.0,38.0,-100.00,WSW,257,2.0,3.0,77,0.00,,,0.00,,2013-07-31 13:53:00,
2013-07-31 08:02:00,45.0,38.0,-100.00,WSW,257,2.0,3.0,77,0.00,,,0.00,,2013-07-31 14:02:00,
2013-07-31 08:12:00,45.0,38.0,-100.00,WSW,257,2.0,3.0,77,0.00,,,0.00,,2013-07-31 14:12:00,
2013-07-31 08:43:00,52.0,40.0,-100.00,West,265,1.0,2.0,65,0.00,,,0.00,,2013-07-31 14:43:00,
2013-07-31 08:53:00,52.0,40.0,-100.00,West,265,1.0,2.0,65,0.00,,,0.00,,2013-07-31 14:53:00,
2013-07-31 09:02:00,52.0,40.0,-100.00,West,265,1.0,2.0,65,0.00,,,0.00,,2013-07-31 15:02:00,
2013-07-31 09:12:00,52.0,40.0,-100.00,West,265,1.0,2.0,65,0.00,,,0.00,,2013-07-31 15:12:00,
2013-07-31 09:43:00,60.0,42.0,-100.00,ENE,64,2.0,5.0,53,0.00,,,0.00,,2013-07-31 15:43:00,
2013-07-31 09:53:00,60.0,42.0,-100.00,ENE,64,2.0,5.0,53,0.00,,,0.00,,2013-07-31 15:53:00,
2013-07-31 10:02:00,60.0,42.0,-100.00,ENE,64,2.0,5.0,53,0.00,,,0.00,,2013-07-31 16:02:00,
2013-07-31 10:12:00,60.0,42.0,-100.00,ENE,64,2.0,5.0,53,0.00,,,0.00,,2013-07-31 16:12:00,
2013-07-31 10:43:00,65.0,43.0,-100.00,ENE,70,3.0,6.0,46,0.00,,,0.00,,2013-07-31 16:43:00,
2013-07-31 10:52:00,65.0,43.0,-100.00,ENE,70,3.0,6.0,46,0.00,,,0.00,,2013-07-31 16:52:00,
2013-07-31 11:02:00,65.0,43.0,-100.00,ENE,70,3.0,6.0,46,0.00,,,0.00,,2013-07-31 17:02:00,
2013-07-31 11:12:00,65.0,43.0,-100.00,ENE,70,3.0,6.0,46,0.00,,,0.00,,2013-07-31 17:12:00,
2013-07-31 11:43:00,69.0,43.0,-100.00,NNE,32,4.0,7.0,38,0.00,,,0.00,,2013-07-31 17:43:00,
2013-07-31 11:53:00,69.0,43.0,-100.00,NNE,32,4.0,7.0,38,0.00,,,0.00,,2013-07-31 17:53:00,
2013-07-31 12:02:00,69.0,43.0,-100.00,NNE,32,4.0,7.0,38,0.00,,,0.00,,2013-07-31 18:02:00,
2013-07-31 12:12:00,69.0,43.0,-100.00,NNE,32,4.0,7.0,38,0.00,,,0.00,,2013-07-31 18:12:00,
2013-07-31 12:43:00,76.0,42.0,-100.00,NNE,18,6.0,10.0,30,0.00,,,0.00,,2013-07-31 18:43:00,
2013-07-31 12:52:00,76.0,42.0,-100.00,NNE,18,6.0,10.0,30,0.00,,,0.00,,2013-07-31 18:52:00,
2013-07-31 13:02:00,76.0,42.0,-100.00,NNE,18,6.0,10.0,30,0.00,,,0.00,,2013-07-31 19:02:00,
2013-07-31 13:12:00,76.0,42.0,-100.00,NNE,18,6.0,10.0,30,0.00,,,0.00,,2013-07-31 19:12:00,
2013-07-31 13:53:00,81.0,38.0,-100.00,NNE,19,6.0,9.0,22,0.00,,,0.00,,2013-07-31 19:53:00,
2013-07-31 14:02:00,81.0,38.0,-100.00,NNE,19,6.0,9.0,22,0.00,,,0.00,,2013-07-31 20:02:00,
2013-07-31 14:11:00,81.0,38.0,-100.00,NNE,19,6.0,9.0,22,0.00,,,0.00,,2013-07-31 20:11:00,
2013-07-31 14:42:00,84.0,30.0,-100.00,NNE,17,7.0,12.0,14,0.00,,,0.00,,2013-07-31 20:42:00,
2013-07-31 14:53:00,84.0,30.0,-100.00,NNE,17,7.0,12.0,14,0.00,,,0.00,,2013-07-31 20:53:00,
2013-07-31 15:02:00,84.0,30.0,-100.00,NNE,17,7.0,12.0,14,0.00,,,0.00,,2013-07-31 21:02:00,
2013-07-31 15:12:00,84.0,30.0,-100.00,NNE,17,7.0,12.0,14,0.00,,,0.00,,2013-07-31 21:12:00,
2013-07-31 15:42:00,85.0,29.0,-100.00,NNE,26,9.0,13.0,13,-99.99,,,0.00,,2013-07-31 21:42:00,
2013-07-31 15:53:00,85.0,29.0,-100.00,NNE,26,9.0,13.0,13,-99.99,,,0.00,,2013-07-31 21:53:00,
2013-07-31 16:02:00,85.0,29.0,-100.00,NNE,26,9.0,13.0,13,-99.99,,,0.00,,2013-07-31 22:02:00,
2013-07-31 16:12:00,85.0,29.0,-100.00,NNE,26,9.0,13.0,13,-99.99,,,0.00,,2013-07-31 22:12:00,
2013-07-31 16:42:00,85.0,34.0,-100.00,NNE,22,9.0,13.0,16,0.01,,,0.00,,2013-07-31 22:42:00,
2013-07-31 16:53:00,85.0,34.0,-100.00,NNE,22,9.0,13.0,16,0.01,,,0.00,,2013-07-31 22:53:00,
2013-07-31 17:02:00,85.0,34.0,-100.00,NNE,22,9.0,13.0,16,0.01,,,0.00,,2013-07-31 23:02:00,
2013-07-31 17:11:00,85.0,34.0,-100.00,NNE,22,9.0,13.0,16,0.01,,,0.00,,2013-07-31 23:11:00,
2013-07-31 17:42:00,83.0,31.0,-100.00,NE,45,4.0,6.0,15,-99.99,,,-99.99,,2013-07-31 23:42:00,
2013-07-31 17:52:00,83.0,31.0,-100.00,NE,45,4.0,6.0,15,-99.99,,,-99.99,,2013-07-31 23:52:00,
2013-07-31 18:02:00,83.0,31.0,-100.00,NE,45,4.0,6.0,15,-99.99,,,-99.99,,2013-08-01 00:02:00,
2013-07-31 18:12:00,83.0,31.0,-100.00,NE,45,4.0,6.0,15,-99.99,,,-99.99,,2013-08-01 00:12:00,
2013-07-31 18:43:00,83.0,25.0,-100.00,West,279,5.0,15.0,12,0.00,,,-99.99,,2013-08-01 00:43:00,
2013-07-31 18:52:00,83.0,25.0,-100.00,West,279,5.0,15.0,12,0.00,,,-99.99,,2013-08-01 00:52:00,
2013-07-31 19:02:00,83.0,25.0,-100.00,West,279,5.0,15.0,12,0.00,,,-99.99,,2013-08-01 01:02:00,
2013-07-31 19:12:00,83.0,25.0,-100.00,West,279,5.0,15.0,12,0.00,,,-99.99,,2013-08-01 01:12:00,
2013-07-31 19:42:00,82.0,27.0,-100.00,WNW,294,8.0,19.0,13,0.01,,,0.00,,2013-08-01 01:42:00,
2013-07-31 19:53:00,82.0,27.0,-100.00,WNW,294,8.0,19.0,13,0.01,,,0.00,,2013-08-01 01:53:00,
2013-07-31 20:02:00,82.0,27.0,-100.00,WNW,294,8.0,19.0,13,0.01,,,0.00,,2013-08-01 02:02:00,
2013-07-31 20:12:00,82.0,27.0,-100.00,WNW,294,8.0,19.0,13,0.01,,,0.00,,2013-08-01 02:12:00,
2013-07-31 20:43:00,80.0,30.0,-100.00,NE,51,3.0,5.0,16,-99.99,,,-99.99,,2013-08-01 02:43:00,
2013-07-31 20:52:00,80.0,30.0,-100.00,NE,51,3.0,5.0,16,-99.99,,,-99.99,,2013-08-01 02:52:00,
2013-07-31 21:02:00,80.0,30.0,-100.00,NE,51,3.0,5.0,16,-99.99,,,-99.99,,2013-08-01 03:02:00,
2013-07-31 21:12:00,80.0,30.0,-100.00,NE,51,3.0,5.0,16,-99.99,,,-99.99,,2013-08-01 03:12:00,
2013-07-31 21:43:00,73.0,35.0,-100.00,North,358,5.0,8.0,25,0.00,,,-99.99,,2013-08-01 03:43:00,
2013-07-31 21:53:00,73.0,35.0,-100.00,North,358,5.0,8.0,25,0.00,,,-99.99,,2013-08-01 03:53:00,
2013-07-31 22:02:00,73.0,35.0,-100.00,North,358,5.0,8.0,25,0.00,,,-99.99,,2013-08-01 04:02:00,
2013-07-31 22:12:00,73.0,35.0,-100.00,North,358,5.0,8.0,25,0.00,,,-99.99,,2013-08-01 04:12:00,
2013-07-31 22:43:00,70.0,34.0,-100.00,NW,312,5.0,6.0,26,0.01,,,0.00,,2013-08-01 04:43:00,
2013-07-31 22:53:00,70.0,34.0,-100.00,NW,312,5.0,6.0,26,0.01,,,0.00,,2013-08-01 04:53:00,
2013-07-31 23:02:00,70.0,34.0,-100.00,NW,312,5.0,6.0,26,0.01,,,0.00,,2013-08-01 05:02:00,
2013-07-31 23:12:00,70.0,34.0,-100.00,NW,312,5.0,6.0,26,0.01,,,0.00,,2013-08-01 05:12:00,
2013-07-31 23:43:00,70.0,35.0,-100.00,NNW,341,5.0,6.0,28,0.00,,,0.00,,2013-08-01 05:43:00,
2013-07-31 23:53:00,70.0,35.0,-100.00,NNW,341,5.0,6.0,28,0.00,,,0.00,,2013-08-01 05:53:00,